Regional Weather Roundup
Issued by NWS Kansas City/Pleasant Hill, MO

Home | Current Version | Previous Version | Graphics & Text | Print | Product List | Glossary Off
Versions: 1 2 3 4 5 6 7 8 9 10 11 12 13 14 15 16 17 18 19 20 21 22 23 24 25 26 27

000
ASUS43 KEAX 311110
RWREAX

WEATHER ROUNDUP FOR EASTERN KANSAS AND NORTHWEST MISSOURI
NATIONAL WEATHER SERVICE KANSAS CITY/PLEASANT HILL MO
600 AM CDT TUE MAY 31 2016

KSZ040-057-103>105-MOZ028-029-037-043-311200-
...KANSAS CITY METROPOLITAN AREA...

CITY           SKY/WX    TMP DP  RH WIND       PRES   REMARKS
K.C. INTL      CLOUDY    63  60  90 CALM      29.95R
K.C. DOWNTOWN  CLOUDY    65  61  87 CALM      29.95R
LEES SUMMIT    CLOUDY    63  60  90 E3        29.96R
OLATHE - IXD   CLOUDY    62  61  96 CALM      29.95S
OLATHE - OJC   CLOUDY    62  60  93 CALM      29.95S
LAWRENCE       CLOUDY    60  59  96 CALM      29.94S

$$

MOZ001>008-011>017-020>025-030>033-038>040-044>046-053-054-311200-
...NORTHERN AND CENTRAL MISSOURI...

CITY           SKY/WX    TMP DP  RH WIND       PRES   REMARKS
ST. JOSEPH     CLOUDY    63  61  93 SE3       29.94S
MOSBY          CLOUDY    63  61  94 CALM      29.96R
WARRENSBURG    CLOUDY    61  61 100 CALM      29.96R
WHITEMAN AFB   LGT RAIN  64  64 100 SE6       29.96R
CLINTON        LGT RAIN  64  64 100 SE8       29.96S
SEDALIA        CLOUDY    65  61  87 SE5       29.97S
WARSAW         NOT AVBL
CHILLICOTHE      N/A     63  62  97 S6        29.99R
KIRKSVILLE     CLOUDY    63  61  93 CALM      29.98R

$$

MOZ041-047>049-056>058-063>065-088>090-097-311200-
...EASTERN AND SOUTHERN MISSOURI...

CITY           SKY/WX    TMP DP  RH WIND       PRES   REMARKS
ST. LOUIS INTL CLOUDY    71  62  73 CALM      29.98R
SPIRIT OF STL  MOCLDY    65  65 100 CALM      29.97R
COLUMBIA       MOCLDY    64  62  93 SE7       29.97S
JEFFERSON CITY CLOUDY    65  63  93 CALM      29.97S
ROLLA          CLOUDY    63  61  93 CALM      29.97S
SPRINGFIELD    CLOUDY    65  61  87 S6        29.95R
JOPLIN         CLOUDY    65  63  93 SE3       29.94F
WEST PLAINS    CLOUDY    64  60  87 CALM      29.98F

$$

IAZ060-094-KSZ022-034>040-054-083-096-NEZ052-066-093-311200-
...KANSAS...SOUTHEAST NEBRASKA AND IOWA...

CITY           SKY/WX    TMP DP  RH WIND       PRES   REMARKS
TOPEKA         CLOUDY    62  60  93 E7        29.92F
MANHATTAN      CLOUDY    65  60  84 S5        29.89F
EMPORIA        CLOUDY    59  59 100 S8        29.92F
CHANUTE        FOG       60  58  92 CALM      29.92S VSB 1/2
WICHITA        TSTM      63  60  90 NW13      29.95R FOG
OMAHA          CLOUDY    67  62  84 CALM      29.89R
LINCOLN        CLOUDY    65  57  75 N6        29.92R
FALLS CITY     LGT RAIN  65  60  84 S10       29.89R
LAMONI         MOCLDY    61  58  90 S8        29.96R
DES MOINES     CLOUDY    65  58  78 S10       29.93R

$$





USA.gov is the U.S. government's official web portal to all federal, state and local government web resources and services.